Regional Weather Roundup
Issued by NWS

Home | Current Version | Previous Version | Graphics & Text | Print | Product List | Glossary On
Versions: 1 2 3 4 5 6 7 8 9 10 11 12 13 14 15 16 17 18 19 20 21 22 23 24 25 26 27 28 29 30 31 32 33 34 35 36 37 38 39 40 41 42 43 44 45 46 47 48 49 50
000
ASUS43 KDMX 250001
RWRIA

WEATHER ROUNDUP FOR IOWA
NATIONAL WEATHER SERVICE DES MOINES IA
600 PM CST FRI FEB 24 2017

NOTE: "FAIR" INDICATES FEW OR NO CLOUDS BELOW 12,000 FEET WITH NO
SIGNIFICANT WEATHER AND/OR OBSTRUCTIONS TO VISIBILITY.

* - THESE STATIONS ARE NOT NWS STATIONS...THUS NOT UNDER NWS
QUALITY CONTROL.  THEY ALSO DO NOT REPORT WEATHER SUCH
AS PRECIPITATION OR FOG.

IAZ001>003-012>014-020>022-031>034-043>046-250100-
   NORTHWEST IOWA

CITY           SKY/WX    TMP DP  RH WIND       PRES   REMARKS
CARROLL *      CLOUDY    25  21  86 NW17      29.87R WCI  11
CHEROKEE *     CLOUDY    24  18  77 N17G26    29.91R WCI  10
DENISON *      CLOUDY    23  18  80 NW15G23   29.89R WCI  10
LE MARS *      PTCLDY    25  18  74 N18       29.95S WCI  11
SHELDON *      PTCLDY    23  21  93 N23G30    29.91R WCI   7
SIOUX CITY     CLEAR     27  17  66 N22G29    29.96R WCI  13
6HR MIN TEMP:  24; 6HR MAX TEMP:  28;

SPENCER        CLOUDY    23  16  74 N25G32    29.88R WCI   7
6HR MIN TEMP:  23; 6HR MAX TEMP:  25; 6HR PCP: TRACE;

STORM LAKE *   CLOUDY    23  16  74 N22G29    29.87R WCI   8
$$

IAZ055>058-069>071-079>083-090>094-250100-
   SOUTHWEST IOWA

CITY           SKY/WX    TMP DP  RH WIND       PRES   REMARKS
ATLANTIC *     MIX PCPN  23  21  93 NW17G25   29.90R WCI   9
AUDUBON *      LGT SNOW  23  19  86 NW14G20   29.88R WCI  11
CLARINDA *     CLOUDY    25  23  93 NW17G26   29.94R FOG     WCI  11
COUNCIL BLFS * MOCLDY    25  19  80 NW18G26   29.93R WCI  11
CRESTON *      MIX PCPN  23  21  93 NW22      29.86R VSB 1   WCI   8
HARLAN  *      CLOUDY    25  21  86 NW20G28   29.94R WCI  11
LAMONI         LGT SNOW  25  22  88 NW23G31   29.81R FOG     WCI  10
6HR MIN TEMP:  25; 6HR MAX TEMP:  33; 6HR PCP:  0.03;

RED OAK *      LGT SNOW  25  21  86 NW17G24   29.93R WCI  11
SHENANDOAH *   LGT SNOW  25  23  93 NW15G24   29.96R WCI  12
$$

IAZ047>049-059>061-072>074-084-250100-
   CENTRAL IOWA

CITY           SKY/WX    TMP DP  RH WIND       PRES   REMARKS
AMES           SNOW      24  23  96 N24G32    29.81R VSB 1/2 WCI   8
6HR MIN TEMP:  24; 6HR MAX TEMP:  29; 6HR PCP: TRACE;

ANKENY *       MIX PCPN  25  21  86 NW21G29   29.82R VSB 1   WCI  10
BOONE *        LGT SNOW  23  21  93 NW15G24   29.80R VSB 1   WCI  10
CHARITON *     LGT SNOW  25  23  93 NW17      29.78R VSB 3/4 WCI  11
DES MOINES     LGT SNOW  25  21  85 N20G30    29.81R VSB 3/4 WCI  11
6HR MIN TEMP:  25; 6HR MAX TEMP:  32; 6HR PCP:  0.04;

GRINNELL*      LGT SNOW  26  24  93 NW20G25   29.74R VSB 3/4 WCI  12
KNOXVILLE *    LGT SNOW  27  23  86 NW22G32   29.75R VSB 1   WCI  12
MARSHALLTOWN   LGT SNOW  25  23  92 N26G33    29.75R VSB 3/4 WCI   9
6HR MIN TEMP:  25; 6HR MAX TEMP:  31; 6HR PCP: TRACE;

NEWTON *       FOG       25  23  93 N24G32    29.75R VSB 3/4 WCI   9
PELLA *        SNOW      27  25  93 NW18      29.77R VSB 1/2 WCI  14
PERRY *        LGT SNOW  24  22  93 NW21      29.85R VSB 1   WCI   9
$$

IAZ004>006-015-016-023>025-035-036-250100-
   NORTH CENTRAL IOWA

CITY           SKY/WX    TMP DP  RH WIND       PRES   REMARKS
ALGONA *       HAZE      21  18  86 N13G18    29.83R VSB 1/2 WCI   9
CLARION *      FOG       23  23 100 N15G25    29.81R VSB 1   WCI  10
ESTHERVILLE    CLOUDY    22  15  75 N17       29.85R WCI   8
6HR MIN TEMP:  21; 6HR MAX TEMP:  23;

FORT DODGE *   CLOUDY    23  18  80 N10G20    29.84R WCI  12
MASON CITY     LGT SNOW  22  21  96 N20       29.79R VSB 3/4 WCI   7
6HR MIN TEMP:  22; 6HR MAX TEMP:  24; 6HR PCP: TRACE;

FOREST CITY *  LGT SNOW  23  21  93 N14       29.80R WCI  11
WEBSTER CITY * MIX PCPN  23  21  93 N22       29.80R VSB 1   WCI   8
IOWA FALLS *     N/A     24  22  90 NW23G29   29.78R WCI   9
$$

IAZ007>011-017>019-026>030-037>042-050>054-066-250100-
   NORTHEAST IOWA

CITY           SKY/WX    TMP DP  RH WIND       PRES   REMARKS
CEDAR RAPIDS   FLURRIES  31  30  96 N14       29.66R WCI  21
6HR MIN TEMP:  31; 6HR MAX TEMP:  33; 6HR PCP: TRACE;

CHARLES CITY * SNOW      25  25 100 N17       29.75R VSB 1/4 WCI  11
CLINTON *      MIX PCPN  32  31  96 N14       29.62R WCI  22
DECORAH *      LGT SNOW  25  23  93 N17G24    29.68R WCI  11
DUBUQUE        CLOUDY    29  27  92 N12       29.63R FOG     WCI  19
6HR MIN TEMP:  29; 6HR MAX TEMP:  32; 6HR PCP:  0.01;

MONTICELLO *   LGT RAIN  30  28  93 N9G17     29.65R WCI  22
OELWEIN *      LGT SNOW  27  27 100 N15G28    29.70R VSB 1   WCI  15
WATERLOO       LGT SNOW  26  23  88 N21G29    29.72R VSB 1   WCI  12
6HR MIN TEMP:  26; 6HR MAX TEMP:  31; 6HR PCP:  0.04;

$$

IAZ064-065-067-068-078-250100-
   EAST CENTRAL IOWA

CITY           SKY/WX    TMP DP  RH WIND       PRES   REMARKS
DAVENPORT      CLOUDY    33  31  92 N15       29.62R FOG     WCI  23
6HR MIN TEMP:  33; 6HR MAX TEMP:  37; 6HR PCP:  0.01;

IOWA CITY      LGT SNOW  33  30  88 NW10      29.67R FOG     WCI  25
6HR MIN TEMP:  33; 6HR MAX TEMP:  36; 6HR PCP: TRACE;

MUSCATINE *    CLOUDY    34  32  93 NW12      29.66R FOG     WCI  25
QUAD CITIES    CLOUDY    38  33  82 NW9       29.61R WCI  31
6HR MIN TEMP:  38; 6HR MAX TEMP:  41; 6HR PCP: TRACE;

$$

IAZ062-063-075>077-085>089-095>099-250100-
   SOUTHEAST IOWA

CITY           SKY/WX    TMP DP  RH WIND       PRES   REMARKS
BURLINGTON     CLOUDY    37  34  89 W8        29.64R WCI  31
6HR MIN TEMP:  37; 6HR MAX TEMP:  41; 6HR PCP: TRACE;

FAIRFIELD *    CLOUDY    32  30  93 NW15      29.68R FOG     WCI  22
KEOKUK *       CLOUDY    36  34  93 W10G17    29.66R WCI  28
CENTERVILLE *  FLURRIES  28  27  93 NW15G22   29.76R WCI  17
OTTUMWA        LGT SNOW  30  28  92 NW21G28   29.71R FOG     WCI  17
6HR MIN TEMP:  30; 6HR MAX TEMP:  37; 6HR PCP:  0.02;

WASHINGTON *   LGT SNOW  32  32 100 NW14      29.68R WCI  22
$$

ABBREVIATIONS USED IN REMARKS
   TC - TEMPERATURES IN CELSIUS
  WCI - WIND CHILL INDEX
   HX - HEAT INDEX
  VSB - VISIBILITY
$$





USA.gov is the U.S. government's official web portal to all federal, state and local government web resources and services.